Regional Weather Roundup
Issued by NWS

Home | Current Version | Previous Version | Text Only | Print | Product List | Glossary On
Versions: 1 2 3 4 5 6 7 8 9 10 11 12 13 14 15 16 17 18 19 20 21 22 23 24 25 26 27 28 29 30 31 32 33 34 35 36 37 38 39 40 41 42 43 44 45 46 47 48 49 50
000
ASUS46 KSTO 220904
RWRCA

NORTHERN AND CENTRAL CA REGIONAL WEATHER ROUNDUP
NATIONAL WEATHER SERVICE SACRAMENTO CA
200 AM PDT SUN APR 22 2018

NOTE: FAIR INDICATES FEW OR NO CLOUDS BELOW 12,000 FEET WITH NO
SIGNIFICANT WEATHER AND/OR OBSTRUCTIONS TO VISIBILITY.

CAZ001-003-221000-
NORTHWEST AREA

CITY           SKY/WX    TMP DP  RH WIND       PRES   REMARKS
CRESCENT CITY  CLOUDY    45  44  97 CALM      30.19F FOG
UKIAH          CLEAR     49  43  80 CALM      30.05F
$$

CAZ006-505>513-221000-
BAY AREA

CITY           SKY/WX    TMP DP  RH WIND       PRES   REMARKS
SANTA ROSA     CLEAR     47  46  97 CALM      30.01S
SAN RAFAEL     N/A       55  MM  MM MISG
NAPA           CLEAR    N/A N/A N/A W3        30.02S
CONCORD        CLEAR     56  51  84 N5        30.01S
OAKLAND CITY   N/A      MM  MM  MM MISG
OAKLAND        CLEAR     53  50  89 NW3       30.03F
SAN FRAN CITY  N/A       52  MM  80 MISG
SAN FRAN ARPT  CLEAR     53  47  79 W13       30.02F
LIVERMORE      CLEAR     54  49  83 CALM      30.01F
HAYWARD        CLEAR     55  46  71 CALM      30.02F
REDWOOD CITY   N/A       55  MM  78 MISG
MOFFETT ARPT   CLEAR     57  52  83 CALM      30.02F
SAN JOSE ARPT  CLEAR     57  52  83 W3        30.02F
$$
CAZ034-037-514>518-221000-
CENTRAL COAST

CITY           SKY/WX    TMP DP  RH WIND       PRES   REMARKS
WATSONVILLE    CLEAR     51  48  89 CALM      30.03F
SALINAS        CLEAR     54  50  86 CALM      30.02F
MONTEREY       CLEAR     52  49  89 CALM      30.03F
SAN LUIS OBISP CLEAR     52  47  83 CALM      29.99F
SANTA MARIA    CLEAR    N/A N/A N/A CALM      30.00F
$$
CAZ015-016-221000-
NORTHERN SACRAMENTO VALLEY

CITY           SKY/WX    TMP DP  RH WIND       PRES   REMARKS
REDDING        CLEAR     53  47  79 CALM      30.02S
RED BLUFF      CLEAR     53  45  74 NW5       30.03R
OROVILLE       CLEAR     65  51  60 E8        30.01F
$$
CAZ016>018-221000-
SOUTHERN SACRAMENTO VALLEY

CITY           SKY/WX    TMP DP  RH WIND       PRES   REMARKS
AUBURN         CLEAR     55  48  76 E7        30.04S
BEALE AFB      CLEAR     59  51  74 E8        29.97F
LINCOLN        FAIR      54  50  87 E8        29.98S
MARYSVILLE     CLEAR     58  52  80 NE3       29.99S
SAC INTL ARPT  CLEAR     58  52  80 CALM      29.97F
MATHER AIRPORT NOT AVBL
DOWNTOWN SAC   N/A       60  MM  MM MISG
SAC EXEC ARPT  CLEAR     60  50  69 CALM      29.98S
VACAVILLE      CLEAR     55  50  83 CALM      29.99S
TRAVIS AFB     CLEAR     55  50  81 SW12      29.96F
$$
CAZ019>021-221000-
SAN JOAQUIN VALLEY

CITY           SKY/WX    TMP DP  RH WIND       PRES   REMARKS
STOCKTON       CLEAR     57  51  80 E5        29.98F
MODESTO        CLEAR     59  53  80 CALM      29.98F
MERCED         CLEAR     52  50  93 CALM      29.99S
LEMOORE        CLEAR     55  42  61 SW6       30.01F
FRESNO         CLEAR     63  53  70 E3        30.00F
HANFORD        CLEAR     56  53  90 SW3       30.01F
PORTERVILLE    PTCLDY    57  48  72 E7        30.02F
BAKERSFIELD    PTCLDY    65  45  48 CALM      30.01F
$$
CAZ011-012-071-221000-
NORTHERN MOUNTAINS

CITY           SKY/WX    TMP DP  RH WIND       PRES   REMARKS
YREKA          CLEAR     48  35  60 N14       30.19F
MOUNT SHASTA   CLEAR     47  36  65 VRB5      30.17S
ALTURAS        CLEAR     41  31  67 CALM      30.18S
$$
CAZ011-012-071-221000-
SIERRA NEVADA MTNS

CITY           SKY/WX    TMP DP  RH WIND       PRES   REMARKS
BLUE CANYON    CLEAR     54  25  32 NE3       30.17F
TRUCKEE        CLEAR     34  34 100 CALM      30.22S
TAHOE VLY ARPT CLEAR     37  34  89 S5        30.21F WCI  33
MAMMOTH LAKES  FAIR      41  26  55 CALM      30.25F
$$




USA.gov is the U.S. government's official web portal to all federal, state and local government web resources and services.